Wind_Speed
1 4 5 5 3 3 6 7 6 3 4 4 4 5 6 7 5 1 4 5 8 8 6 5 8 9 7 5 5 5 6 8 8 7 7 7 7 8 10 11 11 10 8 13 17 17 17 19 22 26 27 27 27 28 29 30 30 31 32 30 30 30 30 29 28 25 23 21 20 20 19 18 16 15 13 12 11 11 11 11 11 10 9 9 7 7
1 6 7 4 1 2 3 5 5 5 4 5 5 5 6 8 5 3 4 3 2 4 4 6 8 7 5 5 5 4 6 6 6 6 6 7 7 7 10 13 13 13 11 14 19 19 18 18 20 22 25 27 29 29 30 31 32 33 34 33 32 33 33 32 30 28 25 23 22 20 18 16 15 15 14 14 13 13 12 12 11 10 9 8 6 6
5 7 5 2 2 3 3 4 5 6 7 6 6 6 6 7 4 1 3 1 5 2 7 8 7 5 3 4 5 4 4 4 4 6 7 7 8 7 8 11 12 14 14 15 17 20 21 20 19 19 20 21 23 27 30 30 32 34 34 34 32 30 29 29 29 28 25 22 20 18 17 16 15 16 15 15 14 13 12 11 10 9 8 7 5 5
5 4 3 4 5 5 5 5 6 6 6 6 6 7 7 6 5 4 2 3 6 1 9 11 6 3 2 3 3 4 4 5 5 5 6 7 8 8 7 8 10 13 16 18 18 18 20 22 22 22 22 22 20 22 24 22 24 30 32 31 31 29 27 26 24 24 21 19 18 16 16 16 15 16 15 14 13 12 11 9 8 7 6 5 4 4
7 1 2 3 6 6 7 7 8 6 5 7 8 8 7 7 5 1 3 5 6 3 11 13 5 0 3 3 2 2 3 4 4 5 6 6 7 8 9 9 9 10 14 20 23 21 20 21 23 23 23 24 24 22 22 18 16 21 24 25 26 25 25 24 22 22 21 20 18 17 16 15 15 15 15 13 12 11 9 8 7 6 5 4 4 4
10 5 1 2 4 6 7 7 9 8 5 6 9 11 10 7 4 5 6 6 3 1 9 9 4 3 3 5 5 4 3 3 4 5 5 6 7 8 10 10 9 10 13 19 25 26 24 22 21 23 23 23 23 22 22 20 16 15 17 18 19 20 22 22 21 20 19 18 18 17 16 15 14 14 13 12 11 9 8 6 5 5 5 4 5 5
7 9 7 5 4 6 7 8 9 9 6 5 6 11 12 8 6 9 9 6 2 3 8 9 7 4 3 5 7 6 5 5 5 6 7 7 7 8 10 11 14 15 16 19 24 26 27 26 23 23 24 24 24 23 23 22 19 18 18 18 17 18 19 20 20 18 17 16 16 14 13 12 12 11 11 10 9 8 6 6 5 4 5 5 6 6
4 7 9 9 9 8 8 7 8 9 8 4 1 8 14 12 10 11 10 7 4 1 6 9 6 4 4 5 7 8 6 6 7 8 10 11 10 11 10 12 17 19 18 21 25 25 26 27 26 24 23 23 23 23 23 22 21 21 21 20 19 18 17 18 18 17 15 14 14 13 11 11 11 10 9 8 7 6 6 5 5 5 5 6 6 7
3 5 8 10 10 9 9 7 6 10 10 4 3 2 10 13 12 11 9 6 6 2 6 9 7 5 4 3 6 8 6 8 11 11 12 14 14 13 13 13 16 18 20 23 25 26 26 26 27 25 23 23 22 21 20 19 20 19 19 18 18 17 16 16 16 15 14 13 13 12 11 11 10 9 8 7 6 5 5 4 4 5 5 6 7 8
1 3 3 6 8 7 8 7 7 10 10 3 3 3 4 8 9 9 8 6 6 6 7 10 9 6 4 4 6 7 7 11 12 11 13 16 17 15 15 16 17 18 22 23 24 27 28 27 27 26 25 23 22 21 20 19 19 18 17 16 16 15 15 15 15 14 13 13 12 11 10 8 8 7 7 7 6 5 5 4 4 5 5 6 7 7
0 1 1 4 8 7 6 6 7 10 11 3 2 1 3 6 7 6 6 5 5 7 9 13 12 7 6 6 9 8 6 10 11 9 12 17 19 19 18 21 23 23 24 24 25 27 29 29 28 27 26 25 23 22 21 21 20 19 18 17 16 16 16 16 15 14 13 13 11 10 9 7 7 7 7 6 5 5 5 4 4 5 5 6 7 7
4 4 2 4 8 7 5 5 7 9 10 6 3 4 4 5 5 4 4 3 5 7 8 16 13 9 8 4 8 11 6 10 14 14 17 21 24 26 24 26 28 27 26 26 27 28 29 29 28 27 27 26 25 24 23 22 21 20 19 18 17 17 16 16 15 13 12 12 10 9 8 8 7 7 6 5 5 4 4 3 4 5 5 6 7 7
5 5 1 1 5 8 7 5 5 6 7 7 5 5 6 5 4 4 4 3 5 4 3 14 14 8 8 1 4 14 11 11 15 15 18 22 27 31 30 30 31 30 29 29 28 28 29 29 28 27 27 26 25 24 23 21 20 20 19 18 17 17 16 15 14 13 11 10 10 9 8 8 7 7 5 4 4 3 3 4 4 5 5 5 6 6
2 2 3 2 3 9 10 6 5 4 6 8 5 5 6 5 4 6 7 5 4 2 0 10 11 6 6 1 0 9 10 10 12 14 21 28 32 34 32 32 33 32 31 30 28 28 29 29 28 27 26 25 24 23 21 20 19 19 18 18 17 16 16 15 13 12 11 10 9 9 8 7 6 5 4 3 3 3 3 3 4 4 4 5 5 6
2 1 4 5 3 8 11 8 3 2 5 7 4 3 4 2 2 4 5 4 3 3 2 8 9 4 4 3 1 2 5 7 8 11 21 29 33 35 35 33 31 30 32 30 29 28 28 28 27 26 25 24 23 22 21 20 19 18 18 18 17 17 16 15 13 12 10 9 9 8 7 6 5 4 3 3 2 2 2 3 3 4 5 5 6 6
3 2 2 2 0 7 12 10 5 2 4 5 2 3 3 1 1 2 2 2 1 4 4 5 5 1 1 3 2 0 4 9 9 12 19 23 28 34 35 32 29 30 30 27 27 29 27 27 27 26 25 24 23 22 21 21 20 19 18 17 16 16 16 14 13 12 10 9 8 7 6 5 4 3 2 2 2 2 2 3 4 4 5 5 6 6
2 2 2 2 2 7 11 8 6 4 2 3 3 4 2 3 0 3 2 1 1 2 3 1 2 1 3 3 4 4 7 10 11 14 20 22 26 29 30 30 29 30 27 24 27 30 28 28 28 27 26 25 24 23 22 21 20 19 18 18 17 16 15 14 13 11 10 8 7 6 5 4 3 2 2 1 2 2 3 3 4 4 5 5 6 7
1 2 1 3 3 6 7 3 3 3 2 1 3 2 2 3 0 3 2 1 1 0 3 0 2 1 4 3 4 7 10 12 12 15 19 22 26 27 26 28 29 27 24 24 27 27 26 29 29 27 26 25 24 24 23 22 21 20 19 18 17 16 15 13 12 11 9 8 6 5 4 3 2 2 1 1 1 2 2 3 4 4 5 5 6 7
2 1 1 3 3 1 2 2 1 3 4 3 3 2 0 2 2 3 2 1 1 1 1 1 2 3 7 4 6 12 14 15 15 15 17 22 28 28 27 28 28 26 24 26 27 25 26 29 29 28 26 25 24 23 23 22 21 21 19 18 16 15 14 13 11 10 8 7 6 4 4 3 2 1 0 1 1 2 3 3 4 4 5 5 6 7
3 1 1 1 2 3 2 3 3 3 5 3 2 1 0 2 2 2 1 1 2 1 1 1 2 4 6 5 9 15 17 18 18 17 18 23 29 28 28 30 30 28 27 27 26 25 27 30 29 28 26 25 25 23 23 22 21 20 19 17 16 14 13 12 11 10 8 7 7 5 4 3 2 1 1 1 2 2 2 3 4 4 5 6 7 8
2 2 1 2 1 3 3 3 3 3 3 4 3 3 2 1 2 1 1 2 1 2 3 3 1 5 2 0 5 10 15 18 19 17 17 22 28 28 29 32 30 28 28 27 25 25 29 32 29 28 27 25 25 24 23 22 21 20 19 17 16 15 13 12 11 10 9 8 7 5 4 3 2 1 1 2 2 2 2 3 4 5 6 7 7 8
1 1 2 3 3 4 3 1 1 3 3 3 3 2 2 2 2 2 2 0 1 1 2 2 2 2 1 2 2 2 8 14 16 15 15 22 28 27 29 32 30 28 28 26 26 29 32 33 31 29 28 26 26 25 24 23 22 21 20 18 17 16 14 13 12 11 10 8 7 6 5 3 2 2 2 2 2 2 3 3 4 5 6 7 8 9
2 1 2 4 3 4 2 1 1 3 3 4 3 1 1 1 2 2 1 1 1 1 1 1 1 1 2 1 2 2 2 9 15 16 16 21 26 26 29 30 28 27 27 27 29 33 34 33 33 32 30 29 28 27 26 25 23 22 21 19 18 17 16 14 12 11 10 9 8 6 5 3 2 2 2 2 2 2 3 4 5 6 7 8 9 10
2 2 2 2 3 3 3 4 3 3 3 3 2 1 1 1 1 2 2 1 2 2 1 2 1 2 2 1 1 2 2 7 15 17 17 20 22 25 28 29 28 27 28 30 33 35 35 36 35 34 32 31 30 28 27 26 24 23 22 21 19 18 16 15 14 13 12 10 8 6 4 3 3 3 3 2 2 2 3 5 5 6 7 8 9 10
1 1 1 2 3 4 3 3 2 2 3 3 1 1 1 1 2 2 1 1 2 0 1 2 1 2 2 1 2 0 3 8 15 19 20 21 23 26 28 28 28 28 29 34 38 38 38 39 37 35 34 33 31 30 29 27 26 25 23 22 20 19 18 17 16 14 12 9 7 6 5 5 5 4 4 2 2 3 3 4 5 6 8 8 9 9
2 1 2 2 1 2 1 1 0 1 2 2 2 2 2 2 3 2 0 1 2 1 0 3 1 1 2 1 1 2 4 8 13 19 21 22 24 28 30 30 30 30 34 40 41 40 40 39 38 37 36 35 34 32 31 30 28 27 25 23 21 21 20 18 17 14 11 10 9 8 7 7 6 5 4 2 2 3 3 4 5 6 7 7 7 8
1 1 1 2 3 2 2 2 2 1 2 2 2 2 2 1 1 1 1 2 0 2 3 3 2 3 2 1 2 4 6 8 11 16 20 21 24 28 30 31 32 32 37 43 42 40 41 41 40 40 39 38 36 34 33 32 30 28 26 25 24 23 21 19 16 14 13 12 11 9 8 7 6 5 4 3 2 3 3 4 5 6 6 7 7 8
1 2 1 1 3 3 3 3 2 2 3 2 2 3 4 2 2 3 4 2 2 2 2 1 2 3 4 1 5 7 9 9 11 17 21 22 25 28 28 30 30 30 35 42 44 43 44 44 44 44 42 40 38 37 35 33 31 30 28 28 27 25 22 20 18 16 15 13 12 10 9 8 7 6 5 4 3 3 3 4 5 6 7 8 8 9
1 2 1 0 3 2 1 2 2 2 3 4 6 5 4 4 6 8 7 3 4 4 2 2 5 6 4 2 5 9 12 12 14 18 21 22 25 27 28 32 34 35 39 45 48 48 48 48 48 47 44 43 41 39 37 36 34 33 31 30 28 25 23 21 19 18 16 14 13 12 10 9 8 7 6 5 4 2 3 5 6 7 8 9 9 10
1 1 1 1 4 3 3 1 1 2 3 5 7 7 6 5 7 9 6 2 4 7 4 1 4 9 8 5 3 5 10 13 14 17 19 22 26 29 31 35 39 44 49 52 53 52 50 50 50 49 47 45 44 42 41 39 37 35 33 31 29 27 25 22 21 19 17 16 14 13 12 11 10 9 7 5 4 2 4 5 6 7 9 10 10 11
2 1 2 1 4 3 1 1 2 2 3 6 8 7 6 5 6 8 6 2 3 7 5 1 4 8 5 1 2 4 9 13 15 18 21 23 27 31 32 35 40 47 53 56 56 54 53 52 51 50 49 48 47 45 43 41 39 37 35 33 31 29 26 24 22 21 19 18 16 15 14 13 11 9 7 5 4 2 3 4 6 8 9 10 11 12
2 1 2 2 3 3 3 5 5 4 4 8 11 10 10 7 5 6 5 5 5 4 3 3 4 5 1 4 4 5 10 12 14 18 21 23 26 31 34 37 40 47 54 58 58 58 56 54 53 53 52 51 49 47 45 43 41 39 37 35 33 30 28 26 24 22 21 20 18 17 15 13 11 10 8 7 5 3 2 4 7 9 10 11 12 13
1 2 2 1 2 2 4 5 5 5 5 6 6 7 8 9 9 6 5 7 9 5 4 5 5 1 3 3 4 6 8 11 15 20 22 23 26 30 33 36 40 46 54 58 60 60 58 57 55 54 54 52 50 49 47 45 43 40 38 36 34 31 29 28 26 25 23 21 19 18 15 13 13 12 10 9 7 3 3 5 8 9 11 11 12 13
3 2 2 1 2 2 3 4 3 4 6 3 1 1 3 4 8 10 9 9 11 9 5 4 2 2 4 6 6 8 11 14 19 26 29 30 31 32 34 37 41 46 52 56 59 60 59 57 56 55 54 52 50 49 47 45 42 40 39 37 35 33 31 29 28 26 24 22 20 19 17 15 15 14 12 11 7 4 4 6 9 11 12 12 13 14
2 3 2 1 1 1 3 3 2 4 5 2 2 2 0 3 1 6 11 10 9 11 10 8 7 6 7 7 6 7 10 12 16 23 29 33 35 37 39 42 46 49 52 55 58 59 59 58 57 56 55 53 50 48 47 45 43 42 40 38 36 34 32 31 29 27 25 24 22 21 19 18 17 16 14 11 7 5 6 8 11 12 13 12 13 14
1 1 2 1 1 1 0 1 1 5 5 2 1 1 1 1 2 2 10 11 10 11 12 12 12 7 5 5 6 5 6 7 10 18 27 31 33 36 39 40 43 46 48 51 53 55 55 56 55 54 53 52 51 49 48 47 45 43 42 39 37 36 34 32 31 29 27 26 25 22 20 19 19 17 14 11 8 6 8 10 12 14 14 13 13 14
4 2 1 1 1 1 1 2 3 7 8 4 1 1 2 2 2 1 5 6 6 9 12 13 13 7 6 5 5 5 3 4 7 16 25 29 31 33 35 36 36 38 39 41 44 47 49 51 51 52 52 52 51 50 49 47 46 45 43 41 40 38 37 35 34 32 29 28 26 24 21 21 20 18 15 12 9 8 9 12 14 14 14 13 13 14
3 4 2 2 1 1 1 2 3 4 5 2 1 2 3 2 3 2 3 3 2 5 9 13 14 9 7 7 6 7 3 3 5 7 11 19 26 29 30 31 32 32 34 35 37 41 45 47 49 50 51 51 50 50 49 48 47 47 46 44 43 41 40 39 37 34 32 29 27 25 23 22 21 18 16 14 11 10 12 14 15 15 15 14 14 15
2 3 3 1 1 2 2 2 2 3 5 2 2 2 6 7 6 3 2 2 1 3 6 11 13 8 7 10 11 9 5 5 5 1 2 8 15 20 25 26 27 28 30 31 32 34 36 40 44 47 49 50 51 50 50 49 49 49 48 47 45 44 44 43 40 36 33 30 28 26 25 23 21 19 17 15 12 12 14 15 15 15 15 14 15 15
1 1 1 1 2 2 2 2 3 4 4 2 2 4 8 10 7 3 2 1 2 7 5 7 10 7 10 15 14 9 6 7 2 3 3 4 5 10 16 20 23 25 26 27 29 30 31 33 37 42 46 48 49 49 49 50 50 51 51 49 48 47 48 46 41 37 33 30 29 28 26 25 22 20 18 16 14 14 16 16 16 16 15 15 16 16
0 1 0 1 1 2 3 3 4 4 3 2 4 9 13 9 4 2 2 1 3 8 5 4 8 8 13 19 17 12 15 15 7 2 2 2 3 3 7 12 17 21 23 25 26 28 30 32 34 37 39 41 44 46 47 49 51 53 53 52 51 52 51 47 41 37 34 32 30 29 28 26 23 21 19 18 16 16 18 17 17 17 16 16 16 17
2 1 1 1 1 1 3 2 4 5 3 4 8 11 11 5 2 3 1 0 3 4 3 3 7 9 14 19 19 19 22 22 18 14 11 7 5 5 4 7 10 15 20 24 26 28 30 31 33 35 36 37 40 42 44 47 50 52 53 54 55 54 51 46 42 39 36 33 32 31 29 27 24 22 21 20 19 19 19 18 18 17 17 17 17 18
4 3 2 3 3 2 0 1 2 5 2 14 16 9 5 4 0 2 2 2 3 2 1 3 6 8 11 14 16 17 19 20 21 21 20 18 15 12 11 10 10 11 14 18 23 27 29 31 32 34 35 36 37 39 41 45 47 49 52 54 55 54 50 46 43 40 38 36 34 32 31 28 26 24 23 21 21 20 20 19 19 18 18 18 18 18
4 4 3 2 4 4 2 4 3 4 5 22 19 3 7 13 6 2 2 3 3 2 2 3 4 6 8 10 10 11 14 17 18 19 20 21 20 19 18 16 15 14 13 14 17 21 26 29 31 32 34 35 36 37 40 42 44 47 49 50 51 52 50 47 45 42 40 39 36 34 32 30 28 26 24 23 23 22 21 21 20 19 19 18 18 19
5 3 1 1 4 4 3 6 5 3 7 26 23 6 5 15 14 9 9 10 9 6 5 4 3 4 7 9 11 12 14 14 13 14 16 17 17 17 18 17 17 17 16 15 15 17 22 26 29 31 33 35 36 38 39 40 42 44 45 46 47 48 49 48 47 45 43 41 38 35 33 32 30 28 26 25 24 24 22 21 20 20 20 19 18 19
3 2 3 1 2 4 9 15 16 12 12 23 27 19 12 14 18 19 19 20 19 17 13 11 10 9 10 12 14 16 16 14 13 13 14 14 15 16 16 17 17 17 18 18 17 17 19 22 26 30 33 34 36 38 39 39 41 42 42 43 44 45 46 47 48 48 46 43 40 37 35 34 32 30 28 27 26 25 24 23 22 21 20 19 19 20
4 7 5 1 2 3 5 7 9 11 14 19 24 26 26 26 26 26 26 27 27 27 25 22 20 18 17 17 19 20 19 17 17 17 16 17 18 17 17 17 17 17 18 19 18 19 20 22 25 29 32 34 35 36 37 38 39 40 40 41 42 42 43 46 49 50 48 45 42 40 38 37 34 31 30 28 27 26 25 24 23 22 21 20 20 20
5 9 6 3 4 5 6 7 9 13 16 18 21 25 28 29 28 28 28 29 30 31 32 32 31 29 29 28 27 26 24 22 22 21 20 21 21 21 21 21 20 19 20 19 20 21 23 24 27 28 30 32 33 34 35 36 37 37 39 40 41 42 44 46 49 50 49 47 45 43 40 37 35 33 31 29 28 27 26 24 23 22 21 21 21 21
9 9 5 3 4 6 10 14 16 17 21 26 30 31 30 30 30 28 27 27 28 30 31 32 33 34 35 35 34 32 31 31 29 27 26 26 26 26 25 24 23 23 23 23 23 24 25 27 28 29 30 30 30 31 33 34 34 36 38 40 41 43 45 46 47 48 48 48 46 44 40 38 36 33 31 29 28 27 26 25 24 23 22 22 21 21
9 5 3 2 3 5 8 11 9 5 9 18 23 21 21 23 23 21 20 20 21 25 27 28 29 30 30 32 32 32 35 37 34 32 32 32 32 31 30 28 28 27 26 26 26 27 28 28 29 29 30 29 29 31 32 32 33 35 37 39 42 43 44 45 46 47 48 48 47 45 41 39 37 34 31 30 30 29 28 26 25 24 23 22 22 22
15 10 9 9 8 11 17 20 14 8 11 19 22 19 16 17 18 19 21 22 24 27 27 26 27 28 27 28 28 29 31 33 31 31 32 32 32 31 31 30 31 31 31 30 30 31 31 31 31 31 31 30 31 32 32 31 33 34 36 38 41 42 43 45 46 46 47 47 47 46 43 40 37 34 32 32 31 30 28 27 26 24 23 22 22 22
Wind_Direction
232 224 225 230 212 182 199 223 252 326 359 316 289 262 255 248 236 61 79 120 113 95 58 71 109 114 100 78 91 115 115 114 124 126 124 126 116 115 120 121 124 121 113 123 134 143 150 153 156 162 166 167 166 165 164 161 160 162 161 164 167 162 159 158 157 156 154 154 155 155 153 150 147 144 143 139 134 129 125 121 121 122 118 113 108 100
235 237 238 236 129 120 206 228 247 269 270 270 268 258 256 245 254 49 130 161 75 97 106 108 100 76 68 67 65 99 113 114 131 137 135 140 133 120 122 124 126 128 127 128 131 135 141 148 154 158 161 164 164 164 167 161 155 158 158 158 161 158 155 155 154 153 154 153 154 153 151 150 147 142 140 136 130 127 124 123 123 121 114 109 100 90
228 240 247 196 153 196 213 214 221 237 243 247 250 248 252 238 245 1 147 44 353 101 140 143 121 74 58 66 56 64 82 86 109 139 152 154 148 141 132 128 128 130 132 131 130 133 137 141 147 151 151 154 155 154 158 156 150 153 155 152 152 153 153 151 148 148 151 150 151 151 147 144 141 136 134 132 128 126 126 124 121 115 111 104 92 80
230 246 259 201 185 198 205 202 206 218 228 232 236 237 244 231 225 238 175 50 2 89 149 147 123 90 107 85 63 61 77 90 95 122 147 163 160 151 144 137 136 139 139 135 132 133 136 138 141 144 143 144 146 144 144 145 144 148 151 148 146 149 150 149 146 144 144 144 144 143 139 137 136 132 130 130 128 126 125 121 116 111 105 94 79 63
246 314 29 192 198 212 217 205 204 217 223 221 226 232 238 225 217 229 131 96 37 69 143 136 113 198 182 187 168 107 108 118 121 134 141 158 161 149 148 146 144 148 145 140 139 138 137 137 136 137 140 141 141 141 139 139 139 140 143 143 144 146 146 145 144 141 139 141 139 135 133 133 133 130 129 130 127 125 123 117 112 101 88 73 53 36
252 248 109 139 186 210 221 219 213 217 225 224 223 226 233 229 182 117 132 141 82 143 173 158 175 209 173 200 200 160 167 169 156 168 167 162 160 156 154 153 152 153 150 144 141 140 140 139 137 135 138 140 138 141 142 143 145 140 140 143 144 142 138 135 135 133 132 133 132 131 131 131 132 131 130 129 126 124 121 112 100 80 64 48 34 25
252 239 225 227 229 217 224 234 224 216 227 240 214 207 217 226 186 154 159 174 174 208 204 206 215 198 171 206 200 172 182 202 195 197 196 189 183 178 168 160 159 155 152 148 143 142 141 142 145 143 142 143 143 147 146 147 153 152 146 144 141 135 130 128 127 125 124 123 122 124 128 130 136 138 133 127 124 119 110 95 79 63 48 36 27 21
213 223 221 228 234 229 232 238 224 213 224 246 183 192 205 210 199 180 176 195 238 222 179 204 229 229 207 190 175 171 178 207 218 214 205 200 199 194 186 171 162 158 155 150 145 144 143 144 147 148 146 145 145 145 144 146 151 149 145 142 139 133 127 123 121 120 120 118 120 126 134 141 147 148 137 125 118 105 90 78 65 51 40 31 23 18
174 208 211 219 226 230 235 233 205 203 221 249 353 251 218 212 201 186 185 210 237 226 181 201 221 223 205 141 143 169 188 218 220 213 205 200 197 195 192 184 172 164 161 155 150 148 146 147 148 149 150 149 147 144 145 148 148 145 143 140 139 137 131 125 121 122 124 125 131 139 146 150 148 141 128 114 104 94 81 69 57 45 36 28 22 18
196 228 219 219 225 233 236 219 185 194 217 247 7 328 270 232 204 189 201 217 230 233 204 193 200 207 200 157 157 178 207 220 213 206 202 197 194 194 191 188 181 171 166 161 156 152 150 151 152 153 153 153 153 153 155 157 154 152 150 145 143 140 134 130 129 132 137 140 144 147 146 144 135 122 112 105 97 90 81 67 54 43 33 26 20 14
238 239 225 228 233 241 239 212 191 205 221 258 354 287 258 228 204 198 215 214 233 241 204 184 196 223 221 183 180 192 204 194 180 178 192 192 192 193 191 189 183 174 170 167 163 158 156 156 156 157 157 157 159 162 164 163 160 158 153 150 148 143 139 138 138 143 146 143 142 140 134 126 120 110 103 101 95 89 84 68 52 40 29 22 15 10
237 229 215 227 230 228 230 216 207 219 226 240 259 226 215 205 190 207 220 206 231 243 197 177 184 219 226 197 196 205 189 166 174 183 187 184 185 187 189 189 184 177 174 172 169 164 160 160 160 161 161 161 162 164 164 162 160 157 153 152 150 146 144 140 140 143 142 138 136 132 128 120 114 108 104 101 95 90 80 59 44 33 23 17 11 6
238 230 191 218 218 205 212 213 200 220 224 220 236 227 207 181 170 208 215 211 227 254 200 169 172 208 224 236 205 202 192 180 189 191 181 174 177 183 187 187 184 181 178 175 173 169 164 163 164 165 164 163 163 162 162 160 158 156 154 154 153 148 144 141 141 142 139 138 135 128 125 119 114 110 107 100 90 80 65 47 38 28 18 11 3 357
227 172 137 165 205 197 208 208 182 200 204 202 223 227 206 178 180 207 208 215 220 256 322 169 170 202 209 156 178 193 188 186 186 182 179 178 179 182 185 186 184 184 181 177 176 173 168 167 167 167 165 163 162 161 160 158 157 156 154 153 152 148 146 146 145 146 144 141 135 128 126 121 117 113 105 97 83 67 52 40 28 17 8 1 357 354
237 129 157 187 176 179 203 222 210 180 193 200 217 232 235 217 197 212 205 207 181 135 141 168 173 201 190 162 347 211 181 166 158 165 173 177 181 182 184 187 187 186 182 179 180 178 172 170 168 167 165 163 162 161 160 158 157 157 155 152 154 152 151 151 149 148 147 144 138 133 130 124 119 114 105 94 75 59 40 23 11 5 2 359 358 356
250 293 169 203 102 169 197 217 219 204 192 189 184 229 245 232 216 272 243 228 171 135 142 170 183 253 124 126 87 121 165 152 143 152 160 166 176 181 184 187 188 187 184 182 183 180 175 172 170 169 168 165 164 162 161 160 160 162 160 158 159 158 154 153 152 151 149 146 140 133 129 125 121 112 102 89 61 45 21 11 6 0 358 357 355 353
261 328 134 175 221 204 209 208 196 211 202 154 179 205 184 108 87 274 254 279 258 159 114 185 217 126 135 144 130 145 157 154 155 163 167 169 173 177 182 185 186 186 185 186 184 181 179 176 175 173 170 167 166 164 164 164 164 166 165 165 165 163 160 156 154 153 150 144 138 136 133 129 125 115 96 74 35 21 11 6 359 353 352 351 352 351
309 15 108 186 206 222 229 206 165 220 247 180 208 216 113 107 127 260 257 1 303 69 69 7 271 192 190 180 138 162 171 169 172 172 173 175 176 181 183 182 183 184 185 187 184 182 182 180 178 174 172 170 168 168 169 168 168 167 167 166 167 165 162 159 156 154 149 144 142 142 141 132 127 125 81 31 12 0 356 354 350 349 349 350 352 352
278 95 98 219 211 139 185 194 180 213 221 233 272 314 301 209 212 207 227 234 133 25 49 88 340 268 223 201 166 184 189 182 177 173 176 180 182 184 182 179 183 184 185 186 183 182 184 183 180 176 173 172 172 172 173 172 171 169 168 166 166 165 163 160 158 155 150 149 151 153 154 153 152 155 155 343 340 342 347 350 345 346 348 348 351 355
302 281 92 215 205 110 130 209 217 193 195 216 275 307 201 280 269 214 262 266 173 143 146 104 0 252 228 203 187 193 189 179 176 179 184 184 183 183 179 179 184 185 185 184 182 183 186 185 181 178 176 175 175 177 178 177 174 172 170 168 168 168 166 164 162 161 161 161 165 170 170 172 178 186 251 311 326 335 338 337 336 341 347 352 359 2
311 285 136 116 158 176 182 210 226 212 195 204 217 205 180 225 255 225 296 301 230 180 166 131 203 237 237 148 194 194 186 181 180 181 182 181 181 181 180 182 184 185 184 182 181 185 187 185 181 179 179 178 179 180 181 180 178 175 174 173 171 172 172 172 170 169 172 173 175 178 179 185 194 213 274 292 301 316 322 328 339 351 356 3 5 4
248 307 134 146 178 203 196 154 289 273 281 271 248 225 217 226 240 212 184 186 339 271 174 148 208 230 48 23 335 193 184 186 183 176 170 174 178 178 179 183 185 184 183 182 184 186 187 185 183 182 182 182 184 184 184 183 182 180 179 178 177 178 178 179 178 177 179 182 184 187 188 195 207 227 258 277 289 310 328 341 354 3 3 3 1 359
216 254 136 163 205 228 212 119 215 249 272 285 275 263 238 230 263 259 191 110 292 249 222 241 245 70 82 83 335 344 207 185 180 176 169 171 175 173 176 181 183 183 183 184 187 187 188 189 187 186 185 187 188 187 187 187 186 184 184 183 182 183 185 185 185 187 188 189 190 190 190 200 219 240 260 276 297 321 342 353 359 0 356 355 356 359
200 210 159 180 216 230 199 157 182 228 237 249 243 204 247 241 278 299 344 337 246 207 202 234 211 75 81 96 354 301 250 181 174 173 165 163 168 169 172 179 182 183 185 187 187 189 192 193 191 189 189 190 190 190 190 190 190 189 189 188 188 189 191 192 192 194 194 192 191 191 196 211 226 241 251 261 293 328 343 350 351 350 351 354 358 359
282 207 192 207 194 185 182 174 184 201 214 240 229 165 216 198 183 202 169 214 233 193 341 263 195 94 89 45 30 155 194 178 173 172 168 164 168 171 173 179 184 184 186 188 190 193 195 195 193 192 193 193 193 194 194 194 195 195 193 192 193 194 196 196 197 197 194 193 194 196 204 214 223 234 242 257 300 327 337 343 345 349 354 357 356 355
304 243 228 248 232 167 175 299 82 190 228 240 224 207 197 176 199 225 337 278 262 97 175 261 261 74 87 70 38 136 167 174 170 172 174 171 171 174 177 181 186 187 188 190 192 196 198 198 197 196 197 197 197 198 198 198 198 198 196 196 198 200 201 200 199 197 196 197 198 201 208 216 225 234 245 266 297 316 329 341 348 353 356 354 350 347
266 259 260 248 270 296 333 2 45 322 264 215 215 221 191 165 200 233 263 272 241 138 198 244 288 323 321 184 187 187 179 177 171 171 174 174 174 176 178 182 185 188 191 193 195 198 200 200 201 201 201 200 200 201 202 202 201 200 200 200 201 202 203 203 200 199 200 201 201 204 211 219 228 237 247 260 279 306 327 344 352 356 355 349 347 346
227 262 65 190 275 300 317 333 341 294 263 242 274 238 197 187 178 202 233 251 110 163 235 214 182 278 307 201 190 194 184 181 180 179 178 176 176 177 178 182 185 188 193 196 199 201 203 203 204 204 203 202 203 204 204 204 203 203 203 204 204 204 204 204 203 203 203 204 204 208 214 220 228 234 241 248 263 287 321 354 2 360 353 347 345 345
256 283 41 346 299 281 251 314 317 285 284 283 281 264 228 196 190 208 230 215 191 234 286 110 174 233 274 246 195 190 189 189 185 182 180 176 175 176 179 183 188 192 196 199 202 204 205 205 206 206 204 204 205 205 205 205 205 204 205 206 207 207 207 206 205 205 206 207 208 212 216 221 226 232 235 238 250 279 350 13 9 357 346 341 341 344
245 276 60 280 291 259 225 237 205 249 286 278 272 265 252 233 219 231 251 229 221 259 287 106 229 260 261 239 212 183 180 178 173 174 177 177 178 180 183 187 192 196 200 202 204 206 207 208 208 208 207 206 206 206 206 206 205 205 206 207 208 208 208 208 207 208 209 210 212 214 217 221 225 229 230 233 252 313 16 13 355 341 335 336 340 345
302 354 79 316 285 266 247 242 224 249 276 273 271 252 231 245 254 250 253 233 241 261 258 197 274 275 264 162 94 137 156 160 166 175 180 183 183 183 187 192 195 199 203 205 206 207 209 210 210 210 210 209 208 208 208 207 207 207 208 209 210 210 209 210 211 212 211 211 213 215 217 220 225 229 231 238 262 312 4 348 331 329 332 339 344 347
336 106 82 5 290 283 9 359 327 323 303 278 274 252 217 208 231 242 227 202 212 218 161 160 253 263 154 89 91 132 157 168 177 183 186 189 189 189 192 196 199 202 204 206 207 208 210 211 212 212 213 212 211 210 210 210 209 209 210 212 213 212 212 212 213 213 212 212 214 216 218 222 228 234 236 242 257 282 320 316 319 326 332 341 345 345
88 147 113 60 269 289 3 352 334 328 302 275 276 262 225 204 208 227 238 225 220 199 156 198 233 219 116 141 145 151 171 187 195 194 191 192 193 196 200 201 203 205 207 208 209 210 211 213 214 215 215 214 213 213 213 213 212 213 215 216 216 215 213 213 213 213 212 213 216 218 220 225 232 236 237 241 251 264 285 304 315 321 327 336 341 342
170 155 116 170 239 288 321 320 317 295 277 255 147 186 258 236 215 221 235 228 207 201 216 252 241 154 167 188 182 178 188 200 206 203 200 198 197 200 206 209 209 210 211 211 212 213 214 215 216 217 218 217 217 216 216 216 216 217 218 218 217 216 214 214 214 213 213 216 219 219 221 227 233 235 237 240 245 250 269 295 308 312 319 328 335 339
163 133 118 180 221 267 306 328 314 252 244 220 118 132 55 359 296 241 267 269 226 218 239 260 249 212 197 207 208 198 201 212 216 211 208 209 208 206 210 213 214 215 215 215 216 216 217 218 218 219 220 219 219 218 218 218 218 218 219 218 218 217 216 216 217 215 215 218 221 220 222 229 234 235 236 239 241 244 265 287 299 304 312 321 329 333
264 151 137 146 200 247 254 106 216 263 274 288 298 230 207 7 84 261 278 268 232 220 228 243 250 230 181 210 233 229 236 248 245 230 220 217 217 217 218 219 219 220 220 220 220 220 220 220 221 222 222 221 220 219 219 220 219 219 220 219 219 218 218 218 219 217 218 220 222 222 225 231 234 234 235 239 240 242 262 282 292 299 306 315 321 325
275 276 141 149 214 203 175 202 260 300 313 313 248 177 181 196 138 154 279 266 222 209 212 228 247 232 158 161 197 203 237 287 273 252 237 227 224 225 226 228 229 228 228 229 227 226 226 225 225 225 225 224 223 222 221 221 220 220 220 219 219 219 219 219 220 219 220 223 224 225 228 231 233 234 234 237 240 243 261 278 287 294 302 308 313 318
268 286 293 271 239 132 125 276 286 297 291 272 203 182 186 172 114 122 283 291 248 229 221 223 234 221 155 136 151 156 156 288 266 255 249 239 232 230 231 232 234 235 236 237 235 232 231 230 229 229 229 228 227 225 224 223 222 221 221 221 220 220 220 221 221 221 223 225 227 228 229 230 231 233 235 238 239 244 259 274 283 290 296 301 306 313
299 299 304 307 149 142 166 216 212 237 250 224 121 154 183 172 145 135 280 284 313 309 266 230 228 216 155 153 161 150 156 248 251 78 348 271 246 236 236 236 234 234 236 238 239 238 236 235 233 232 232 231 230 229 227 225 224 223 223 223 222 222 223 223 223 224 226 228 230 230 229 229 230 232 235 239 239 244 258 271 278 286 292 297 302 308
12 330 293 230 195 176 180 201 223 246 254 219 150 162 175 171 160 161 261 282 347 338 309 225 217 205 171 169 167 162 198 230 239 53 11 304 276 247 243 243 240 238 237 236 238 238 239 239 236 234 234 233 232 231 229 227 226 225 225 225 225 225 226 226 226 228 230 230 230 230 228 228 230 232 236 239 239 244 256 267 275 282 288 293 298 303
351 356 329 249 235 191 198 239 276 265 238 189 153 158 162 164 170 204 199 186 318 334 336 211 205 198 185 180 178 200 227 228 230 290 300 314 329 280 256 251 246 244 242 240 239 238 237 237 237 236 237 237 235 234 232 229 228 227 227 227 228 228 230 230 230 231 231 230 230 229 228 227 230 233 236 238 239 244 254 263 271 278 285 290 295 300
182 152 149 199 184 167 199 246 298 288 243 149 136 148 159 167 210 218 187 42 299 326 11 174 201 201 198 199 205 224 238 237 239 248 252 256 268 275 284 273 255 248 244 241 239 238 236 236 236 237 238 238 237 236 234 232 231 230 229 229 231 232 232 231 231 231 231 230 230 229 228 228 230 233 235 236 239 244 252 261 268 275 282 287 292 297
171 166 185 196 166 127 72 199 250 296 186 138 131 129 179 209 188 127 176 248 273 289 70 148 186 196 201 212 225 239 248 248 249 252 252 253 256 260 266 270 266 262 254 245 240 238 236 236 236 236 236 236 236 236 234 234 233 233 232 233 234 235 234 232 231 232 231 230 230 229 228 229 231 234 236 237 240 244 250 258 265 272 279 283 289 295
189 190 196 205 181 161 169 182 191 319 180 164 158 149 216 208 205 84 155 231 264 248 192 176 192 204 210 221 234 243 247 252 257 260 260 260 262 264 265 266 265 266 264 258 252 245 240 238 238 237 237 237 236 235 234 234 234 234 235 237 237 236 234 232 231 231 230 230 230 230 230 230 232 234 235 236 239 243 248 256 262 269 275 280 286 292
213 196 123 200 202 192 227 225 228 337 179 185 195 235 220 208 227 250 253 259 264 252 238 235 238 237 234 236 238 239 243 249 256 260 262 264 265 265 265 265 263 262 261 259 257 251 245 243 242 240 239 238 236 236 235 235 235 236 236 238 238 237 235 233 231 231 231 231 231 231 230 230 231 233 235 236 239 243 248 255 260 266 272 277 284 289
228 144 92 99 238 260 266 253 247 256 233 211 218 235 245 242 250 256 260 265 265 263 261 260 261 262 256 249 244 241 244 248 252 254 257 261 261 260 261 262 260 259 258 254 253 252 249 246 244 242 241 240 238 237 237 236 236 236 236 237 238 238 237 233 231 232 232 233 232 231 230 229 229 231 233 235 239 243 247 253 257 263 269 275 281 287
205 181 183 232 284 265 256 240 228 237 240 230 230 240 250 257 258 257 260 264 266 268 269 267 267 267 261 256 253 252 253 251 250 251 252 254 257 257 258 260 260 259 259 258 255 254 251 248 245 242 241 240 240 239 238 238 237 237 238 238 239 239 237 234 232 232 233 233 232 230 228 228 229 231 233 235 238 242 246 250 255 261 267 273 279 284
167 175 191 219 218 229 259 269 263 266 267 259 250 248 251 256 260 261 263 265 267 269 269 269 269 268 265 264 262 260 260 257 253 254 255 254 256 256 254 256 257 258 260 261 257 253 250 248 248 246 244 244 243 242 242 241 241 240 238 238 238 238 236 234 233 233 235 234 233 231 230 230 230 232 234 237 239 243 247 250 255 260 266 271 277 282
135 162 182 200 219 250 279 275 264 270 278 270 261 257 258 263 268 269 270 271 271 271 272 272 271 270 269 270 267 263 262 260 257 257 258 259 258 257 256 256 255 256 257 258 257 256 255 253 252 250 249 249 248 247 245 245 244 242 239 238 238 237 235 235 233 234 234 234 233 232 231 230 231 232 235 237 240 243 246 249 253 258 263 269 275 280
149 175 163 167 227 240 254 250 231 231 275 270 263 261 264 269 271 269 266 266 268 273 277 277 276 275 273 272 270 266 263 263 262 260 261 263 264 263 261 259 256 254 254 253 254 255 255 255 255 253 252 252 251 248 247 247 247 245 241 239 238 237 237 236 234 233 233 233 232 232 231 230 230 231 234 237 240 242 244 246 249 255 261 267 274 279
200 198 177 192 226 238 245 250 242 231 261 273 275 277 275 272 270 269 270 273 274 277 279 278 277 277 275 274 274 270 267 267 267 265 264 266 267 267 266 263 259 255 253 252 251 252 252 254 255 253 252 251 248 247 248 249 248 247 245 242 240 239 238 237 235 233 233 232 232 231 231 230 230 231 233 236 238 240 241 243 248 253 258 264 271 276
Height
1542 1541 1539 1535 1533 1534 1537 1537 1535 1537 1538 1536 1535 1532 1531 1529 1527 1529 1533 1533 1531 1538 1551 1552 1551 1555 1556 1557 1556 1556 1556 1555 1555 1555 1555 1556 1556 1556 1556 1555 1554 1555 1555 1553 1550 1550 1550 1550 1550 1550 1552 1553 1553 1554 1554 1555 1556 1556 1556 1557 1558 1558 1560 1562 1563 1564 1566 1567 1568 1570 1570 1571 1571 1572 1573 1573 1574 1574 1575 1575 1576 1576 1576 1576 1576 1575
1543 1540 1534 1532 1534 1536 1537 1538 1538 1540 1539 1539 1537 1535 1535 1532 1530 1533 1535 1535 1532 1537 1552 1556 1555 1559 1559 1558 1558 1557 1556 1556 1556 1555 1556 1556 1557 1556 1556 1554 1554 1555 1555 1553 1550 1549 1550 1551 1551 1551 1551 1552 1552 1553 1555 1555 1556 1556 1556 1556 1557 1558 1559 1560 1561 1562 1564 1566 1568 1569 1569 1570 1570 1571 1572 1573 1573 1574 1574 1575 1575 1576 1576 1576 1575 1575
1542 1538 1533 1535 1537 1537 1538 1538 1539 1540 1539 1540 1537 1535 1535 1532 1533 1536 1536 1538 1536 1539 1551 1555 1556 1561 1561 1559 1559 1558 1558 1557 1557 1557 1557 1557 1557 1557 1556 1554 1554 1555 1555 1553 1552 1550 1550 1551 1552 1552 1553 1554 1555 1554 1555 1556 1556 1555 1556 1556 1557 1559 1561 1561 1561 1563 1565 1566 1567 1568 1568 1569 1570 1571 1572 1572 1573 1574 1574 1575 1575 1575 1575 1575 1575 1574
1538 1535 1534 1535 1537 1537 1538 1539 1539 1539 1538 1538 1536 1535 1533 1531 1533 1534 1537 1542 1540 1540 1547 1552 1556 1560 1561 1560 1559 1559 1558 1558 1558 1558 1558 1558 1557 1557 1556 1555 1554 1555 1555 1553 1554 1553 1553 1553 1552 1553 1554 1556 1558 1558 1557 1561 1560 1557 1556 1557 1557 1559 1562 1563 1563 1564 1565 1566 1567 1568 1568 1570 1571 1571 1572 1572 1573 1574 1574 1575 1575 1575 1575 1574 1574 1574
1535 1534 1535 1536 1536 1537 1538 1538 1539 1537 1536 1535 1535 1534 1530 1531 1533 1534 1538 1543 1544 1545 1543 1545 1553 1557 1558 1559 1559 1559 1558 1558 1558 1558 1558 1558 1557 1557 1556 1555 1555 1556 1555 1553 1553 1554 1555 1555 1554 1554 1556 1557 1558 1558 1559 1564 1566 1562 1560 1560 1560 1561 1563 1563 1564 1564 1565 1565 1566 1568 1568 1570 1571 1572 1572 1572 1573 1574 1574 1574 1575 1575 1575 1574 1574 1573
1535 1535 1537 1536 1537 1538 1537 1537 1536 1535 1533 1533 1533 1531 1529 1531 1533 1537 1540 1541 1546 1550 1543 1537 1539 1544 1554 1558 1556 1558 1558 1557 1558 1557 1558 1557 1557 1556 1555 1555 1555 1555 1555 1553 1552 1552 1554 1556 1556 1556 1558 1559 1558 1558 1561 1565 1567 1566 1564 1564 1565 1565 1564 1563 1564 1565 1565 1565 1566 1567 1568 1569 1571 1572 1572 1572 1572 1573 1574 1574 1574 1574 1574 1574 1573 1573
1535 1535 1536 1537 1537 1537 1537 1535 1534 1534 1533 1530 1527 1527 1529 1531 1533 1537 1538 1540 1542 1540 1536 1533 1528 1531 1548 1555 1553 1556 1557 1556 1557 1556 1556 1556 1555 1555 1554 1554 1554 1553 1554 1554 1552 1552 1553 1554 1556 1558 1559 1560 1559 1560 1562 1564 1566 1566 1566 1567 1568 1567 1566 1563 1563 1564 1565 1566 1566 1567 1568 1569 1571 1572 1572 1572 1573 1573 1574 1574 1574 1574 1574 1573 1573 1572
1533 1534 1535 1536 1536 1536 1536 1533 1533 1534 1533 1528 1524 1525 1528 1528 1532 1534 1535 1537 1536 1531 1533 1535 1529 1523 1532 1543 1550 1555 1555 1555 1556 1554 1554 1555 1554 1554 1554 1553 1553 1553 1554 1553 1551 1552 1553 1554 1555 1558 1561 1561 1560 1561 1562 1563 1564 1566 1566 1566 1566 1566 1565 1563 1563 1565 1566 1566 1567 1568 1570 1570 1571 1572 1572 1573 1573 1573 1573 1573 1573 1573 1573 1572 1572 1571
1533 1534 1534 1534 1535 1534 1532 1530 1531 1533 1532 1528 1526 1527 1526 1524 1527 1530 1532 1534 1533 1532 1533 1533 1531 1520 1519 1539 1552 1553 1554 1553 1552 1552 1551 1552 1553 1552 1553 1552 1552 1552 1553 1552 1552 1552 1554 1555 1556 1558 1560 1562 1561 1562 1562 1563 1564 1565 1565 1565 1564 1564 1564 1564 1564 1566 1567 1568 1569 1570 1571 1571 1572 1573 1573 1573 1573 1572 1573 1572 1572 1572 1572 1572 1571 1571
1533 1533 1533 1533 1533 1531 1528 1528 1530 1531 1529 1527 1528 1529 1528 1526 1526 1529 1530 1530 1532 1532 1526 1525 1527 1516 1514 1537 1552 1550 1549 1544 1541 1546 1548 1549 1550 1550 1551 1551 1551 1552 1552 1552 1552 1553 1554 1554 1556 1558 1559 1560 1561 1562 1562 1563 1564 1564 1564 1564 1563 1563 1564 1564 1566 1567 1569 1569 1570 1571 1572 1572 1572 1572 1572 1572 1572 1572 1572 1572 1572 1572 1571 1571 1571 1570
1533 1534 1534 1533 1532 1529 1528 1529 1529 1529 1528 1528 1529 1530 1532 1530 1528 1530 1528 1529 1533 1525 1514 1516 1522 1514 1508 1523 1537 1536 1530 1526 1530 1540 1544 1545 1546 1547 1548 1549 1550 1550 1551 1553 1552 1552 1552 1553 1556 1557 1558 1559 1559 1561 1561 1562 1562 1562 1563 1563 1563 1564 1564 1565 1567 1568 1570 1570 1571 1571 1571 1572 1572 1572 1572 1572 1572 1572 1572 1572 1572 1571 1571 1571 1570 1570
1532 1534 1533 1532 1531 1530 1530 1529 1528 1529 1528 1529 1530 1530 1533 1531 1528 1530 1528 1530 1531 1515 1503 1507 1517 1517 1504 1505 1517 1518 1514 1515 1521 1527 1531 1535 1538 1541 1545 1546 1548 1549 1550 1551 1551 1551 1551 1552 1555 1556 1558 1558 1558 1559 1560 1560 1561 1561 1562 1563 1564 1565 1565 1566 1568 1569 1571 1571 1571 1571 1571 1572 1572 1572 1572 1572 1572 1572 1572 1572 1571 1571 1570 1569 1569 1569
1529 1530 1531 1530 1530 1530 1529 1528 1528 1529 1529 1530 1531 1531 1530 1527 1528 1528 1525 1526 1521 1509 1505 1504 1510 1513 1500 1495 1505 1508 1510 1514 1514 1517 1522 1527 1531 1536 1540 1543 1546 1547 1548 1549 1550 1551 1551 1551 1554 1556 1557 1557 1557 1558 1559 1560 1561 1561 1563 1564 1565 1566 1566 1568 1569 1570 1571 1571 1571 1571 1571 1572 1572 1572 1572 1572 1572 1571 1571 1571 1570 1569 1569 1568 1568 1568
1525 1524 1529 1529 1527 1527 1526 1525 1525 1528 1529 1528 1529 1527 1521 1519 1523 1523 1517 1515 1510 1509 1512 1507 1508 1506 1493 1495 1507 1506 1508 1512 1513 1517 1521 1525 1530 1533 1539 1542 1544 1546 1546 1547 1549 1550 1550 1551 1553 1555 1556 1556 1556 1557 1559 1560 1561 1562 1563 1564 1565 1567 1567 1568 1569 1570 1571 1570 1570 1571 1571 1571 1571 1571 1571 1571 1571 1571 1570 1570 1569 1569 1568 1568 1567 1567
1524 1520 1524 1524 1522 1522 1523 1521 1519 1522 1524 1523 1523 1521 1517 1516 1519 1514 1506 1504 1503 1507 1512 1508 1506 1499 1489 1499 1511 1508 1510 1513 1514 1518 1520 1526 1531 1534 1539 1542 1543 1545 1545 1546 1548 1550 1550 1550 1552 1554 1555 1555 1556 1557 1558 1559 1561 1562 1563 1564 1565 1566 1567 1568 1569 1569 1570 1570 1570 1570 1571 1571 1571 1571 1571 1571 1570 1570 1569 1569 1568 1568 1567 1567 1566 1566
1529 1522 1520 1521 1520 1521 1521 1519 1519 1521 1521 1521 1521 1520 1519 1518 1518 1514 1507 1506 1503 1502 1509 1506 1498 1495 1496 1506 1513 1510 1511 1513 1514 1518 1521 1526 1531 1533 1536 1539 1541 1543 1543 1545 1546 1548 1550 1550 1552 1553 1554 1554 1555 1556 1558 1559 1560 1562 1562 1564 1565 1566 1567 1567 1568 1568 1569 1569 1569 1570 1570 1570 1570 1570 1570 1569 1569 1568 1568 1567 1567 1566 1566 1566 1566 1566
1526 1522 1519 1521 1521 1520 1519 1517 1519 1520 1519 1521 1519 1517 1517 1516 1518 1516 1508 1507 1505 1500 1505 1504 1494 1494 1499 1504 1511 1512 1511 1513 1515 1518 1520 1523 1527 1531 1533 1535 1538 1540 1541 1544 1544 1546 1548 1549 1550 1552 1553 1554 1554 1556 1558 1559 1560 1562 1562 1563 1564 1565 1566 1566 1567 1567 1568 1568 1569 1569 1569 1569 1569 1569 1569 1568 1568 1567 1567 1566 1566 1566 1566 1566 1566 1565
1521 1520 1518 1519 1518 1519 1519 1519 1520 1520 1519 1519 1516 1513 1514 1516 1520 1517 1506 1503 1502 1500 1505 1505 1498 1495 1490 1493 1509 1514 1510 1511 1513 1514 1518 1522 1525 1527 1529 1532 1535 1538 1541 1543 1543 1545 1548 1548 1549 1551 1552 1553 1554 1556 1557 1559 1560 1561 1562 1562 1563 1564 1564 1565 1566 1566 1567 1567 1568 1568 1568 1568 1568 1568 1567 1567 1566 1566 1566 1566 1566 1566 1566 1566 1565 1564
1520 1517 1517 1518 1517 1517 1519 1519 1519 1519 1519 1518 1515 1513 1513 1513 1511 1509 1506 1498 1494 1502 1507 1503 1503 1497 1482 1485 1503 1506 1502 1505 1509 1511 1514 1516 1518 1521 1525 1529 1533 1536 1539 1541 1542 1544 1546 1547 1548 1549 1551 1552 1553 1555 1557 1558 1559 1559 1560 1561 1562 1563 1563 1564 1564 1565 1566 1566 1567 1567 1567 1567 1567 1567 1567 1566 1566 1566 1566 1566 1566 1566 1565 1564 1564 1562
1520 1515 1516 1517 1516 1516 1518 1518 1516 1515 1517 1518 1516 1514 1514 1511 1503 1500 1499 1489 1488 1501 1503 1499 1502 1492 1472 1474 1485 1487 1490 1495 1500 1504 1506 1507 1511 1516 1520 1525 1530 1533 1536 1537 1540 1542 1543 1546 1547 1548 1550 1551 1552 1554 1556 1557 1558 1558 1560 1560 1561 1562 1562 1563 1563 1564 1565 1565 1566 1566 1566 1566 1566 1566 1566 1565 1565 1565 1565 1566 1565 1565 1564 1563 1562 1561
1522 1515 1515 1517 1517 1516 1514 1513 1510 1508 1510 1512 1511 1511 1511 1508 1502 1497 1497 1493 1490 1493 1493 1495 1495 1478 1468 1475 1477 1477 1483 1487 1490 1494 1498 1504 1509 1513 1518 1522 1527 1530 1533 1535 1538 1540 1541 1544 1546 1547 1548 1549 1551 1553 1555 1556 1557 1558 1559 1559 1560 1561 1561 1562 1562 1563 1564 1564 1565 1565 1565 1565 1565 1565 1565 1565 1565 1565 1565 1565 1564 1563 1562 1561 1560 1560
1521 1515 1514 1517 1515 1511 1508 1510 1511 1509 1509 1506 1503 1504 1503 1502 1499 1493 1494 1500 1499 1493 1490 1491 1479 1464 1473 1485 1481 1479 1482 1484 1488 1492 1497 1503 1507 1511 1516 1520 1524 1527 1530 1533 1535 1537 1539 1541 1544 1545 1546 1548 1549 1551 1554 1555 1556 1556 1557 1557 1558 1559 1560 1561 1561 1562 1563 1563 1563 1564 1564 1564 1564 1564 1565 1564 1564 1564 1563 1563 1562 1561 1560 1560 1559 1559
1520 1514 1513 1514 1512 1508 1507 1511 1513 1511 1512 1510 1506 1505 1503 1501 1498 1490 1488 1494 1499 1501 1499 1491 1475 1466 1478 1488 1484 1484 1484 1484 1490 1493 1496 1502 1505 1509 1514 1518 1523 1526 1528 1531 1532 1535 1537 1539 1541 1542 1543 1546 1547 1550 1552 1553 1554 1555 1555 1555 1556 1557 1558 1559 1560 1561 1561 1562 1562 1562 1563 1563 1563 1563 1563 1563 1562 1562 1562 1561 1560 1560 1559 1559 1558 1557
1518 1512 1510 1509 1507 1505 1508 1513 1514 1513 1514 1509 1505 1505 1503 1501 1500 1495 1495 1496 1494 1495 1492 1484 1474 1469 1477 1486 1485 1485 1486 1485 1489 1492 1495 1501 1504 1508 1513 1516 1520 1523 1526 1529 1530 1532 1535 1536 1538 1539 1541 1544 1546 1548 1550 1551 1552 1552 1552 1553 1554 1555 1556 1557 1559 1559 1559 1560 1560 1561 1561 1561 1561 1561 1561 1562 1561 1561 1560 1560 1559 1559 1558 1557 1557 1556
1514 1510 1507 1501 1496 1498 1502 1505 1506 1508 1509 1504 1501 1505 1505 1504 1503 1499 1501 1497 1489 1491 1490 1479 1469 1467 1476 1486 1485 1484 1486 1485 1487 1491 1494 1498 1502 1506 1510 1514 1518 1521 1523 1525 1527 1529 1531 1532 1535 1537 1539 1542 1543 1545 1547 1548 1549 1549 1549 1551 1552 1553 1555 1555 1557 1557 1558 1558 1559 1559 1559 1559 1560 1560 1560 1560 1560 1560 1559 1559 1558 1557 1557 1556 1556 1556
1514 1512 1507 1496 1490 1491 1492 1492 1496 1501 1503 1499 1499 1503 1502 1503 1501 1494 1494 1490 1484 1493 1496 1480 1466 1466 1475 1484 1484 1484 1486 1484 1486 1490 1492 1495 1499 1502 1506 1510 1515 1518 1519 1521 1523 1525 1527 1530 1533 1535 1536 1538 1540 1542 1544 1544 1545 1546 1547 1548 1550 1551 1552 1553 1555 1556 1556 1556 1557 1557 1558 1558 1559 1559 1559 1559 1559 1558 1558 1557 1556 1556 1555 1555 1555 1555
1518 1515 1511 1504 1497 1493 1493 1498 1506 1509 1502 1496 1496 1498 1500 1503 1501 1495 1491 1485 1482 1491 1490 1478 1474 1472 1470 1477 1482 1483 1484 1484 1486 1488 1490 1493 1496 1499 1503 1507 1511 1514 1514 1517 1520 1522 1525 1527 1529 1531 1532 1534 1536 1538 1539 1540 1541 1543 1544 1546 1547 1548 1550 1552 1553 1554 1554 1554 1555 1555 1556 1557 1557 1557 1558 1558 1557 1557 1556 1556 1555 1555 1554 1554 1554 1553
1516 1511 1514 1514 1509 1508 1510 1512 1517 1515 1505 1498 1495 1494 1495 1500 1502 1497 1490 1484 1485 1486 1478 1478 1487 1480 1467 1470 1478 1480 1482 1482 1483 1485 1486 1489 1492 1496 1501 1504 1508 1511 1512 1515 1517 1518 1520 1522 1523 1526 1527 1530 1532 1533 1535 1537 1539 1541 1542 1543 1545 1546 1548 1550 1550 1551 1552 1552 1553 1554 1554 1555 1556 1556 1556 1556 1555 1555 1555 1554 1553 1553 1553 1552 1552 1551
1515 1509 1516 1518 1512 1513 1518 1516 1516 1514 1511 1508 1503 1496 1494 1497 1498 1494 1488 1485 1485 1479 1473 1481 1491 1481 1468 1469 1472 1475 1478 1478 1479 1482 1484 1487 1490 1494 1497 1500 1503 1506 1508 1510 1511 1512 1514 1515 1517 1520 1522 1525 1527 1529 1532 1534 1535 1537 1539 1540 1542 1544 1546 1547 1548 1549 1549 1550 1551 1552 1553 1554 1554 1554 1554 1554 1554 1554 1553 1552 1551 1551 1551 1551 1550 1550
1515 1511 1519 1521 1511 1508 1512 1514 1515 1512 1507 1505 1502 1499 1498 1497 1496 1491 1487 1489 1489 1482 1478 1487 1492 1482 1471 1469 1470 1472 1475 1476 1479 1482 1484 1485 1487 1489 1492 1495 1496 1498 1499 1501 1503 1505 1507 1509 1512 1515 1518 1520 1522 1525 1527 1529 1531 1533 1535 1538 1540 1541 1543 1544 1545 1546 1547 1548 1549 1550 1551 1552 1552 1552 1552 1552 1552 1551 1550 1550 1550 1550 1550 1549 1549 1548
1513 1512 1521 1522 1508 1501 1505 1510 1512 1511 1507 1502 1497 1496 1498 1500 1500 1495 1492 1494 1493 1484 1483 1490 1489 1478 1469 1469 1472 1473 1475 1477 1478 1480 1481 1483 1484 1486 1488 1490 1490 1491 1492 1493 1496 1499 1501 1505 1508 1510 1513 1515 1517 1520 1523 1525 1528 1530 1532 1535 1536 1538 1540 1541 1542 1543 1545 1546 1547 1548 1549 1549 1550 1550 1549 1549 1549 1549 1548 1549 1549 1549 1548 1547 1546 1545
1514 1513 1519 1518 1503 1497 1506 1511 1508 1508 1508 1501 1491 1488 1491 1494 1494 1491 1488 1489 1484 1477 1482 1487 1478 1467 1466 1471 1473 1474 1475 1477 1477 1478 1479 1480 1481 1482 1482 1483 1484 1485 1486 1488 1491 1494 1496 1499 1502 1504 1507 1510 1513 1516 1519 1521 1524 1526 1528 1531 1533 1535 1537 1538 1539 1541 1542 1544 1545 1545 1546 1546 1547 1547 1547 1547 1548 1547 1547 1547 1547 1547 1546 1545 1544 1543
1520 1512 1514 1516 1502 1497 1510 1515 1509 1504 1498 1487 1480 1480 1481 1482 1483 1485 1484 1482 1480 1475 1475 1473 1464 1460 1467 1471 1471 1473 1476 1476 1475 1475 1476 1477 1479 1480 1479 1479 1480 1481 1482 1484 1486 1489 1491 1494 1496 1499 1502 1505 1509 1511 1514 1517 1520 1523 1525 1528 1530 1532 1533 1535 1537 1538 1540 1541 1542 1543 1543 1544 1544 1545 1545 1546 1546 1545 1544 1544 1544 1544 1544 1543 1542 1541
1521 1511 1516 1519 1503 1496 1507 1509 1505 1501 1488 1474 1477 1484 1484 1479 1477 1478 1474 1471 1473 1472 1466 1461 1460 1463 1468 1467 1466 1468 1470 1469 1469 1469 1470 1472 1473 1475 1477 1477 1478 1480 1481 1483 1484 1486 1488 1490 1493 1496 1499 1502 1506 1509 1512 1516 1518 1521 1523 1525 1527 1529 1530 1532 1534 1535 1537 1538 1539 1540 1540 1541 1542 1543 1543 1543 1542 1541 1541 1542 1542 1542 1542 1541 1540 1540
1516 1510 1519 1523 1508 1500 1506 1502 1495 1489 1477 1471 1479 1486 1485 1482 1480 1477 1470 1466 1468 1469 1465 1461 1460 1460 1462 1463 1463 1464 1465 1465 1466 1467 1468 1469 1468 1469 1471 1471 1473 1475 1476 1478 1480 1481 1484 1487 1490 1492 1495 1499 1503 1507 1510 1513 1516 1519 1520 1522 1524 1526 1528 1530 1531 1532 1534 1535 1535 1537 1537 1538 1540 1540 1540 1540 1539 1538 1539 1540 1540 1540 1540 1540 1539 1538
1517 1511 1514 1519 1513 1504 1500 1496 1487 1475 1468 1472 1480 1483 1481 1481 1481 1477 1468 1461 1462 1465 1466 1462 1457 1456 1461 1464 1464 1465 1466 1466 1467 1466 1466 1467 1467 1467 1467 1467 1469 1470 1472 1473 1475 1477 1480 1483 1485 1488 1492 1496 1500 1504 1507 1509 1512 1515 1517 1519 1521 1523 1524 1526 1527 1528 1530 1531 1532 1533 1534 1535 1536 1537 1537 1536 1535 1535 1537 1538 1538 1538 1538 1538 1537 1537
1521 1514 1506 1507 1513 1507 1499 1498 1489 1475 1468 1467 1468 1474 1476 1474 1474 1474 1466 1456 1453 1458 1460 1458 1455 1455 1459 1463 1465 1465 1467 1468 1465 1463 1462 1463 1464 1465 1466 1467 1469 1470 1471 1473 1475 1477 1479 1481 1484 1487 1491 1494 1497 1500 1503 1506 1509 1511 1513 1515 1517 1519 1520 1521 1522 1524 1526 1527 1528 1529 1531 1532 1533 1533 1533 1533 1533 1533 1534 1536 1536 1536 1536 1536 1535 1535
1522 1519 1506 1500 1510 1515 1507 1499 1491 1478 1467 1461 1462 1469 1473 1470 1473 1476 1471 1459 1452 1453 1454 1453 1451 1452 1456 1462 1465 1465 1468 1467 1461 1456 1458 1460 1461 1462 1464 1466 1468 1469 1471 1472 1474 1476 1478 1480 1483 1486 1489 1491 1494 1497 1500 1503 1505 1507 1509 1511 1512 1514 1515 1515 1517 1520 1522 1523 1524 1526 1527 1529 1529 1530 1530 1530 1530 1531 1532 1534 1534 1534 1534 1533 1533 1533
1522 1523 1516 1506 1511 1517 1507 1494 1489 1477 1462 1458 1464 1470 1471 1471 1474 1475 1470 1458 1451 1451 1452 1451 1450 1451 1455 1460 1463 1465 1467 1463 1455 1453 1457 1458 1458 1460 1461 1463 1465 1467 1468 1470 1472 1474 1475 1478 1481 1483 1486 1488 1490 1493 1496 1499 1501 1503 1504 1506 1508 1509 1509 1509 1512 1515 1517 1519 1521 1522 1524 1525 1526 1526 1527 1527 1527 1528 1530 1531 1531 1531 1531 1530 1530 1530
1519 1518 1516 1509 1508 1512 1505 1493 1488 1477 1462 1461 1467 1469 1471 1473 1473 1470 1463 1454 1450 1451 1451 1450 1450 1452 1455 1458 1462 1463 1461 1456 1452 1454 1457 1457 1457 1458 1459 1460 1462 1464 1465 1467 1469 1471 1473 1475 1477 1479 1480 1482 1484 1488 1491 1494 1497 1498 1499 1501 1503 1502 1502 1504 1508 1512 1514 1516 1518 1519 1521 1522 1523 1523 1524 1524 1525 1526 1527 1528 1528 1528 1528 1528 1527 1527
1520 1519 1521 1516 1509 1512 1508 1495 1485 1473 1462 1464 1468 1467 1471 1473 1471 1465 1456 1450 1451 1452 1450 1450 1451 1452 1454 1457 1459 1458 1455 1453 1454 1456 1457 1457 1457 1458 1458 1459 1460 1462 1463 1465 1467 1469 1470 1471 1473 1474 1475 1478 1481 1483 1486 1489 1491 1492 1494 1496 1496 1495 1496 1501 1506 1510 1511 1513 1514 1516 1517 1519 1520 1520 1521 1522 1522 1523 1524 1525 1525 1525 1525 1525 1524 1524
1513 1517 1522 1521 1513 1513 1512 1502 1489 1471 1458 1461 1467 1469 1471 1468 1461 1456 1451 1449 1451 1451 1449 1450 1451 1451 1453 1455 1455 1454 1453 1454 1455 1456 1456 1457 1457 1458 1458 1459 1459 1460 1461 1462 1464 1465 1467 1468 1469 1471 1472 1474 1477 1478 1481 1484 1485 1486 1488 1489 1488 1488 1493 1499 1503 1505 1507 1509 1510 1512 1513 1515 1516 1517 1517 1518 1519 1520 1521 1521 1522 1522 1522 1522 1521 1521
1497 1497 1503 1508 1507 1509 1513 1506 1486 1464 1454 1458 1463 1467 1468 1460 1450 1448 1450 1450 1450 1449 1449 1449 1449 1450 1452 1452 1452 1453 1453 1454 1454 1454 1455 1456 1456 1457 1458 1458 1458 1459 1459 1460 1461 1462 1463 1464 1465 1466 1468 1470 1472 1474 1476 1478 1479 1481 1482 1481 1482 1486 1491 1496 1499 1501 1503 1504 1506 1508 1509 1511 1512 1513 1514 1514 1515 1516 1517 1518 1518 1518 1518 1518 1518 1517
1489 1484 1483 1489 1490 1492 1495 1486 1467 1453 1454 1457 1454 1454 1457 1453 1448 1449 1450 1449 1449 1449 1449 1449 1448 1449 1450 1450 1450 1451 1451 1452 1452 1452 1453 1454 1454 1455 1456 1456 1457 1457 1457 1458 1458 1458 1460 1461 1461 1463 1465 1466 1467 1469 1470 1472 1473 1475 1475 1476 1479 1483 1488 1492 1494 1496 1498 1499 1501 1504 1505 1506 1507 1508 1510 1511 1512 1513 1513 1514 1514 1515 1515 1515 1514 1514
1478 1476 1474 1476 1477 1475 1471 1463 1455 1453 1457 1457 1451 1448 1450 1450 1449 1450 1449 1448 1449 1449 1448 1448 1448 1448 1448 1448 1448 1448 1448 1449 1450 1450 1451 1451 1451 1452 1453 1453 1454 1454 1454 1455 1455 1456 1457 1457 1458 1460 1460 1461 1463 1464 1465 1467 1469 1470 1470 1472 1476 1479 1483 1487 1489 1491 1492 1494 1497 1499 1500 1502 1503 1504 1505 1507 1507 1508 1509 1510 1510 1511 1511 1511 1511 1510
1475 1478 1476 1473 1473 1469 1459 1452 1452 1453 1454 1454 1452 1450 1450 1450 1449 1449 1448 1448 1448 1447 1447 1448 1447 1447 1447 1447 1446 1446 1446 1446 1447 1447 1448 1448 1448 1449 1450 1450 1451 1451 1452 1452 1452 1453 1454 1454 1454 1455 1456 1456 1458 1459 1460 1462 1464 1464 1466 1469 1472 1475 1478 1482 1484 1485 1487 1490 1492 1494 1496 1497 1498 1499 1501 1503 1504 1505 1506 1506 1507 1507 1507 1507 1507 1506
1475 1477 1476 1474 1473 1466 1453 1446 1448 1449 1448 1450 1451 1448 1448 1448 1447 1446 1446 1445 1445 1445 1445 1446 1445 1446 1445 1445 1444 1443 1443 1444 1444 1444 1444 1445 1445 1446 1446 1447 1447 1448 1448 1449 1449 1450 1450 1450 1450 1450 1450 1451 1452 1453 1455 1457 1458 1460 1463 1465 1468 1471 1474 1477 1478 1479 1481 1484 1487 1489 1490 1491 1493 1495 1497 1498 1500 1501 1502 1502 1503 1503 1503 1503 1503 1503
1470 1473 1474 1472 1470 1463 1450 1443 1445 1447 1445 1446 1447 1445 1444 1443 1442 1443 1443 1442 1442 1443 1442 1442 1443 1442 1441 1441 1441 1441 1441 1441 1441 1441 1441 1442 1442 1442 1442 1443 1444 1444 1445 1445 1445 1445 1445 1445 1445 1445 1445 1446 1448 1449 1451 1452 1454 1457 1459 1461 1464 1466 1468 1470 1471 1473 1476 1479 1481 1483 1485 1487 1489 1491 1492 1494 1496 1497 1498 1498 1499 1499 1499 1499 1499 1498
1468 1470 1468 1466 1466 1461 1449 1440 1442 1446 1443 1439 1439 1439 1438 1438 1438 1439 1439 1439 1439 1438 1438 1438 1438 1437 1437 1437 1438 1438 1437 1437 1437 1438 1438 1438 1438 1438 1439 1440 1440 1441 1441 1441 1441 1441 1441 1440 1440 1441 1442 1443 1445 1446 1447 1449 1451 1453 1455 1456 1458 1460 1461 1463 1466 1468 1471 1474 1476 1479 1481 1483 1485 1487 1489 1490 1492 1493 1493 1494 1494 1494 1494 1494 1494 1494
1464 1462 1463 1464 1462 1454 1442 1433 1436 1441 1437 1431 1432 1434 1434 1435 1435 1435 1435 1436 1435 1434 1434 1434 1433 1433 1433 1432 1432 1433 1432 1431 1432 1434 1434 1433 1434 1435 1435 1436 1437 1437 1437 1437 1437 1437 1437 1436 1437 1438 1439 1440 1441 1442 1443 1445 1446 1448 1450 1451 1452 1454 1455 1458 1461 1463 1466 1468 1471 1474 1477 1479 1481 1483 1485 1486 1487 1488 1489 1489 1490 1490 1490 1490 1490 1490
1451 1449 1452 1452 1445 1436 1430 1428 1433 1436 1433 1429 1430 1432 1432 1433 1433 1432 1431 1432 1431 1431 1431 1430 1429 1429 1428 1428 1428 1428 1426 1426 1428 1429 1429 1429 1429 1430 1431 1432 1432 1432 1433 1433 1433 1432 1432 1433 1433 1434 1434 1436 1437 1438 1439 1441 1442 1443 1445 1446 1447 1449 1450 1453 1455 1458 1460 1463 1466 1469 1471 1474 1476 1478 1480 1481 1482 1483 1484 1484 1485 1485 1486 1486 1487 1487